Regional Weather Roundup
Issued by NWS Kansas City/Pleasant Hill, MO

Home | Current Version | Previous Version | Graphics & Text | Print | Product List | Glossary Off
Versions: 1 2 3 4 5 6 7 8 9 10 11 12 13 14 15 16 17 18 19 20 21 22 23 24 25 26 27 28 29 30 31 32 33 34 35 36 37 38 39 40 41 42 43 44 45 46 47 48 49 50

000
ASUS43 KEAX 252011
RWREAX

WEATHER ROUNDUP FOR EASTERN KANSAS AND NORTHWEST MISSOURI
NATIONAL WEATHER SERVICE KANSAS CITY/PLEASANT HILL MO
200 PM CST THU DEC 25 2014

KSZ040-057-103>105-MOZ028-029-037-043-252100-
...KANSAS CITY METROPOLITAN AREA...

CITY           SKY/WX    TMP DP  RH WIND       PRES   REMARKS
K.C. INTL      PTSUNNY   53  30  41 S29G36    29.68F
K.C. DOWNTOWN  LGT RAIN  55  29  36 S25G38    29.72F
LEES SUMMIT    SUNNY     53  29  39 S20G32    29.73F
OLATHE - IXD   MOSUNNY   52  31  44 S26G37    29.69F
OLATHE - OJC   MOSUNNY   53  30  41 S22G33    29.68F
LAWRENCE       PTSUNNY   53  30  41 S20G37    29.67F

$$

MOZ001>008-011>017-020>025-030>033-038>040-044>046-053-054-252100-
...NORTHERN AND CENTRAL MISSOURI...

CITY           SKY/WX    TMP DP  RH WIND       PRES   REMARKS
ST. JOSEPH     MOSUNNY   54  32  43 S20G35    29.66F
MOSBY          PTCLDY    52  30  43 S14G28    29.73F
WARRENSBURG    SUNNY     52  28  40 S22G35    29.78F
WHITEMAN AFB   SUNNY     54  30  41 S22G31    29.79F
CLINTON        SUNNY     54  32  43 S22G32    29.82F
SEDALIA        SUNNY     54  27  35 S23G33    29.83F
WARSAW         NOT AVBL
MARSHALL       SUNNY     55  32  41 S21G30    29.82F
CHILLICOTHE      N/A     52  31  44 S15G30    29.77F
MOBERLY        SUNNY     52  30  43 S15G22    29.85F
KIRKSVILLE     SUNNY     50  31  48 S18       29.82F

$$

MOZ041-047>049-056>058-063>065-088>090-097-252100-
...EASTERN AND SOUTHERN MISSOURI...

CITY           SKY/WX    TMP DP  RH WIND       PRES   REMARKS
ST. LOUIS INTL MOSUNNY   53  32  44 S9        29.97F
SPIRIT OF STL  SUNNY     53  29  39 S10G16    29.95F
COLUMBIA       SUNNY     51  31  46 S17G26    29.88F
JEFFERSON CITY SUNNY     53  28  38 S15G22    29.89F
MEXICO         SUNNY     52  37  58 S14       29.89F
HANNIBAL       SUNNY     52  28  40 S14G21    29.89F
ROLLA          SUNNY     50  29  44 S17G26    29.91F
LEBANON        SUNNY     52  27  37 S16G23    29.91F
OSAGE BEACH    SUNNY     54  27  35 S16G26    29.90S
SPRINGFIELD    MOSUNNY   53  27  36 S21       29.87F
BRANSON        MOSUNNY   52  25  35 SW20      29.95F
NEVADA         SUNNY     54  30  40 S23G32    29.81F
JOPLIN         SUNNY     56  27  32 S22G37    29.83S
WEST PLAINS    SUNNY     49  30  48 S10       29.99F

$$

IAZ060-094-KSZ022-034>040-054-083-096-NEZ052-066-093-252100-
...KANSAS...SOUTHEAST NEBRASKA AND IOWA...

CITY           SKY/WX    TMP DP  RH WIND       PRES   REMARKS
TOPEKA         PTSUNNY   54  29  38 S23G30    29.64F
MANHATTAN      MOSUNNY   53  29  39 S20G29    29.57F
EMPORIA        SUNNY     54  28  36 S30G40    29.62F
CHANUTE        SUNNY     55  32  41 S21G32    29.73F
WICHITA        PTSUNNY   55  27  34 S25G41    29.60S
OMAHA          MOSUNNY   48  31  51 S18G28    29.60F
LINCOLN        SUNNY     49  30  48 S18G29    29.56F
FALLS CITY     SUNNY     52  31  44 S16G30    29.60F
LAMONI         SUNNY     48  30  49 S20G29    29.71F
DES MOINES     MOSUNNY   49  32  52 S17       29.72F

$$



USA.gov is the U.S. government's official web portal to all federal, state and local government web resources and services.